Theta_e
307 308 308 308 308 308 309 309 308 305 307 303 300 296 295 293 292 291 290 290 289 288 288 287 287 287 286 286 286 286 288 290 292 293 292 293 293 292 288 287 292 294 299 303
301 305 305 305 305 306 306 307 309 308 307 300 298 296 294 293 292 291 290 289 289 288 287 287 287 287 286 285 285 285 284 284 286 287 289 291 290 290 293 294 294 291 295 298
305 305 305 306 305 305 307 307 308 308 306 297 296 295 294 292 292 290 290 288 288 288 287 287 287 286 286 285 285 284 284 283 283 284 285 285 286 288 289 291 292 295 296 296
306 306 307 303 306 306 307 308 305 302 298 297 296 295 294 292 291 290 290 288 288 287 287 287 286 286 286 285 284 284 283 283 282 283 283 283 284 284 284 285 288 289 289 290
307 306 304 305 306 307 307 308 303 300 297 294 293 293 291 291 290 290 289 288 288 287 287 286 286 285 285 285 284 284 283 283 282 282 283 283 284 283 283 283 283 283 283 284
307 309 309 303 304 303 305 307 301 298 294 293 292 295 291 291 290 289 288 288 287 286 285 285 285 285 284 284 283 283 283 282 282 282 282 282 282 282 282 281 280 280 280 281
307 307 306 304 303 303 307 304 300 298 295 293 294 295 295 291 290 289 288 287 286 284 284 283 284 284 283 283 283 282 282 282 282 282 282 281 281 281 281 281 281 280 280 280
305 307 305 302 301 304 300 297 298 298 295 293 295 295 291 290 289 289 287 286 285 283 282 281 282 282 282 282 282 282 281 281 281 281 281 281 282 281 280 280 280 279 279 279
305 304 300 300 301 301 299 299 297 297 295 295 293 291 290 289 288 288 286 285 284 282 281 281 281 281 281 281 281 281 281 281 280 280 280 280 280 280 280 279 279 278 278 278
304 300 299 300 299 299 298 299 298 298 296 295 293 290 289 288 288 286 286 285 284 281 281 281 281 280 281 281 281 281 280 280 280 279 279 279 279 279 279 279 278 278 278 277
301 298 298 299 299 297 297 296 296 295 296 294 292 288 287 287 287 287 285 284 283 281 281 281 280 280 280 280 280 280 279 279 279 279 279 278 278 278 278 278 278 277 277 277
301 299 298 298 298 297 297 296 295 295 292 291 290 287 287 288 287 285 284 283 281 280 280 280 280 280 279 279 279 279 279 278 278 278 278 277 277 277 276 276 277 277 276 276
301 299 298 298 297 296 296 294 293 292 291 289 289 289 288 288 286 284 283 282 280 280 280 280 279 279 279 279 278 278 278 277 277 277 276 276 276 276 276 276 275 275 275 274
301 299 296 296 295 295 295 293 291 291 290 290 289 289 288 287 283 284 282 281 280 280 279 279 279 278 278 277 277 277 276 276 275 275 275 275 274 274 274 274 274 274 274 274
298 298 298 296 295 294 294 292 292 291 290 290 289 289 288 284 284 283 281 281 280 279 279 279 278 278 277 277 276 276 275 275 275 275 274 274 274 274 273 273 273 273 273 273
297 297 296 295 294 293 293 292 291 290 290 290 289 286 284 284 284 282 281 281 280 279 280 278 278 278 277 277 276 276 276 275 275 275 274 274 274 274 273 273 273 273 273 273
296 294 294 294 294 292 292 292 291 291 290 288 286 285 285 284 282 281 281 280 279 280 279 278 277 277 277 277 276 276 276 275 275 274 274 274 274 274 274 273 273 273 273 273
298 297 294 293 292 292 292 291 290 290 288 287 286 285 284 283 282 280 279 279 280 280 278 277 277 276 276 276 276 276 275 275 274 274 273 273 273 273 273 273 273 272 272 272
297 296 294 293 293 292 291 290 289 288 287 287 285 284 283 281 280 279 279 279 280 279 278 277 277 277 276 275 275 275 274 274 273 273 273 273 273 273 272 272 272 271 271 271
296 295 295 294 292 292 291 290 289 288 287 286 284 283 281 281 279 279 279 280 279 279 278 278 277 277 276 275 274 274 273 272 272 272 272 272 271 271 271 270 270 270 269 269
296 294 293 292 291 291 290 290 289 288 286 285 285 283 281 279 279 279 279 279 279 279 278 277 277 276 275 274 274 273 272 272 271 271 270 270 270 269 269 268 268 268 267 267
295 294 293 292 292 291 290 290 288 287 286 285 282 281 279 279 279 279 279 279 278 278 277 277 276 275 274 273 272 272 271 271 270 270 269 269 268 268 268 267 267 266 266 265
294 294 293 293 292 291 290 289 288 287 286 283 281 280 279 280 280 280 279 279 278 277 277 276 275 274 273 272 271 271 270 270 269 269 268 268 267 267 266 266 265 265 264 264
294 293 293 292 291 290 289 287 285 284 282 281 280 279 280 280 279 279 279 278 277 276 275 275 274 273 272 271 270 270 269 269 268 268 268 267 266 266 265 265 265 264 263 263
293 293 292 291 290 289 287 286 284 282 280 279 279 279 279 279 279 278 278 277 276 275 274 274 273 271 271 270 270 269 269 269 268 267 267 266 266 266 265 264 264 263 263 262
293 292 290 289 289 288 286 284 283 281 280 279 279 279 279 279 279 278 278 277 276 274 273 272 271 270 270 270 269 269 268 268 267 267 266 266 265 265 264 264 263 263 262 262
291 289 288 287 286 285 284 283 282 281 279 279 279 279 280 279 278 278 277 276 275 273 272 270 270 269 269 269 268 268 268 267 267 267 266 265 265 265 264 264 263 262 262 262
Wind_Speed
6 7 7 11 14 14 11 12 6 6 6 4 12 9 11 10 5 5 6 10 13 17 20 22 24 27 29 32 33 36 36 37 36 36 39 41 41 38 40 42 47 47 47 44
4 8 12 18 16 18 14 15 14 12 12 3 11 16 13 10 6 5 3 7 10 12 16 19 22 23 26 29 32 32 36 36 35 36 35 37 39 39 42 44 46 48 50 47
12 8 11 10 16 14 4 5 9 10 6 10 7 12 14 11 7 6 4 4 8 10 12 15 18 20 23 25 27 31 34 35 35 36 37 39 40 41 42 43 42 41 43 42
7 5 11 7 3 4 7 6 6 3 5 12 12 13 13 9 9 6 4 2 5 6 8 11 13 16 17 22 25 29 31 34 35 36 37 38 38 40 42 42 42 39 38 38
4 8 9 8 3 3 4 5 6 8 8 15 20 14 7 11 9 7 6 2 3 5 6 7 10 14 15 19 23 26 30 32 34 35 36 36 39 39 39 39 38 37 35 35
3 5 3 4 3 4 4 4 10 14 16 21 19 4 4 18 12 10 7 2 3 4 4 4 8 11 13 17 22 25 26 28 30 32 34 35 34 34 34 35 36 35 35 34
6 5 6 3 4 1 3 4 8 19 24 26 6 4 15 21 14 12 7 2 3 3 5 7 7 9 13 15 20 20 21 22 25 28 30 31 31 31 31 31 31 33 34 35
3 4 8 4 1 5 2 2 6 14 19 21 10 20 26 21 18 13 7 3 3 4 6 7 7 8 11 15 15 15 17 20 22 25 26 26 27 28 29 31 32 34 36 37
5 4 0 4 4 3 7 8 8 15 18 21 22 27 25 23 21 13 6 3 3 4 6 7 8 9 10 13 14 14 15 18 20 22 24 25 27 28 29 31 35 37 38 38
1 4 5 6 4 5 9 8 11 10 15 19 25 25 24 26 19 14 7 2 2 3 5 8 9 10 11 11 12 14 16 18 19 21 23 24 24 26 27 27 30 32 34 33
3 3 3 9 11 10 11 11 11 11 13 20 25 25 27 23 17 11 8 5 3 3 5 8 8 9 10 10 11 14 14 15 17 18 19 20 22 24 24 24 24 27 29 30
6 13 6 5 20 16 12 10 10 14 18 22 26 25 23 18 13 12 9 7 5 5 6 7 7 8 8 9 11 12 13 15 17 18 19 20 21 19 18 15 15 18 20 22
3 11 8 11 17 15 11 12 12 16 21 27 23 21 18 16 14 13 9 8 7 5 5 6 6 7 7 8 9 11 13 13 13 14 16 18 19 19 19 14 13 15 17 19
12 19 11 20 13 18 15 16 17 20 22 21 21 18 16 15 16 12 10 9 7 5 4 5 6 6 7 7 8 9 10 10 10 11 13 15 16 17 16 17 19 20 20 22
19 9 5 19 17 18 18 22 23 23 21 20 18 16 16 18 15 13 11 9 6 4 3 4 4 4 5 4 4 6 8 10 11 12 13 13 14 14 15 16 17 18 18 18
13 5 12 22 23 21 24 23 23 22 20 19 18 18 19 16 14 13 11 9 4 3 3 2 3 3 2 3 4 5 8 11 14 16 15 13 12 12 12 13 12 13 14 16
18 16 20 21 23 25 25 23 20 19 19 20 21 19 18 16 14 12 11 8 5 5 1 2 3 3 3 4 6 8 12 15 18 19 17 15 14 14 15 15 15 15 15 14
10 13 18 21 25 27 24 20 18 15 18 19 18 18 18 16 13 12 10 8 8 6 2 2 3 6 8 8 9 12 16 20 21 19 16 16 17 18 18 18 19 21 22 22
9 8 16 19 23 23 21 19 17 15 16 17 18 18 16 14 13 11 9 9 8 5 2 3 4 8 10 11 12 15 18 20 18 16 16 16 17 17 19 20 21 22 22 22
11 10 14 17 20 19 18 16 15 15 16 17 17 17 18 16 13 10 10 9 8 4 1 4 8 12 12 12 14 17 18 18 18 18 19 19 21 22 22 23 23 24 24 24
13 14 16 16 17 14 12 13 16 16 17 16 15 16 15 15 12 10 10 10 8 4 4 6 10 13 14 16 18 18 19 18 18 19 20 21 21 21 21 22 23 23 24 24
15 15 14 13 13 14 14 13 15 15 17 17 16 17 16 14 13 11 9 6 6 6 7 10 13 14 16 17 18 19 18 18 19 19 19 20 21 22 23 23 23 24 24 23
15 14 14 14 13 13 16 15 15 15 17 18 18 17 15 11 9 8 6 6 6 7 10 12 14 16 18 19 19 19 18 19 19 19 20 21 22 23 23 23 23 24 24 24
17 16 16 16 16 15 15 16 15 14 14 15 15 14 12 10 10 8 6 5 6 8 10 12 15 18 19 19 18 18 18 19 20 21 21 22 22 23 23 24 24 24 23 22
14 14 15 15 16 15 15 16 18 19 18 17 16 14 11 9 7 6 4 5 6 9 12 15 17 18 18 17 17 18 19 20 20 21 21 22 23 24 24 25 25 24 24 23
12 13 13 13 12 13 15 17 18 18 18 18 16 14 11 9 7 5 5 7 9 12 14 16 16 17 17 17 18 19 19 19 20 21 22 23 23 24 25 25 25 24 24 23
13 12 14 14 13 13 13 14 15 16 17 16 15 13 11 9 9 8 9 10 12 13 14 15 15 16 16 17 17 18 18 19 20 21 22 22 23 24 25 26 25 24 23 21
Wind_Direction
235 254 272 280 284 275 237 239 231 252 227 222 202 184 174 166 128 82 33 14 14 20 21 25 27 33 35 36 36 39 40 44 45 45 49 56 53 54 61 68 75 78 83 83
259 270 269 270 266 260 249 251 244 251 257 185 158 162 157 167 152 123 76 23 12 14 20 25 25 30 35 38 39 39 43 44 47 52 57 58 61 56 58 62 65 69 79 82
278 279 281 276 240 241 246 202 212 222 221 147 166 171 167 175 162 137 122 41 10 10 19 23 24 27 34 36 38 42 43 45 47 49 50 53 55 57 56 59 63 65 69 71
286 302 270 249 235 214 223 244 187 107 151 169 155 158 165 179 158 148 154 87 7 358 6 21 20 23 31 37 37 38 41 43 45 47 50 50 52 55 55 56 58 59 64 70
246 240 276 304 209 216 189 275 179 140 127 126 140 140 164 175 162 160 162 125 7 352 358 359 15 18 20 35 35 35 35 38 41 43 45 46 47 47 50 52 55 57 58 62
211 269 258 239 192 232 225 275 159 147 155 153 150 172 222 178 170 163 161 123 15 8 6 5 23 18 17 34 37 31 30 33 37 39 41 46 48 49 50 52 55 55 56 55
218 234 255 181 189 188 137 246 157 171 168 164 181 190 158 163 161 164 159 123 38 32 37 41 32 21 26 34 43 30 27 31 35 39 41 40 44 45 47 50 51 50 52 53
200 238 265 128 65 179 194 109 167 181 175 168 164 146 150 157 159 164 165 123 68 54 57 49 44 31 32 37 38 31 28 30 35 35 37 36 35 36 37 39 40 41 40 40
188 235 98 202 257 221 174 158 162 174 182 181 156 154 155 156 159 159 169 128 77 60 63 60 54 49 42 42 32 29 28 32 33 33 32 31 30 30 30 30 29 29 31 34
77 204 210 207 200 185 171 163 151 167 181 180 163 159 157 159 161 156 163 156 93 71 71 65 55 52 52 41 27 28 27 28 28 29 27 25 25 28 26 25 22 22 24 28
263 283 199 226 209 183 156 149 143 150 174 179 171 156 157 163 166 165 167 172 147 113 80 72 65 56 51 44 35 36 33 27 22 19 19 22 20 17 19 21 19 17 18 16
217 209 184 208 196 190 171 166 168 167 159 166 163 152 172 167 165 167 174 164 150 119 85 70 58 52 46 40 34 32 28 23 18 14 13 13 14 17 18 23 12 9 11 12
246 182 184 165 180 182 194 180 166 164 161 156 165 173 176 164 167 173 171 161 151 127 95 68 51 41 34 28 26 23 19 19 17 14 13 11 11 12 10 14 8 3 4 7
189 162 131 166 173 179 182 164 158 157 162 170 173 179 172 166 174 180 171 161 150 133 105 58 41 33 28 21 20 18 18 21 18 9 9 13 16 14 9 9 7 5 5 2
171 186 212 182 175 179 175 166 167 168 172 173 180 177 177 178 180 177 170 163 150 140 111 41 37 34 34 30 17 22 19 15 13 8 9 9 8 12 9 7 8 6 3 5
176 171 170 169 171 174 172 177 177 172 175 178 176 177 180 188 184 180 177 176 171 155 139 35 30 37 26 19 21 9 1 359 355 352 346 341 344 354 359 1 2 358 356 354
160 155 167 174 182 180 188 187 187 182 180 179 181 186 187 184 181 181 178 178 172 165 116 38 58 53 34 1 343 332 339 341 340 339 335 331 329 330 332 334 334 335 337 337
236 213 191 183 180 182 185 186 187 192 187 188 190 187 185 187 187 179 176 178 175 167 104 76 24 7 354 341 330 325 331 332 332 331 328 321 325 327 326 326 328 329 329 330
187 192 184 182 182 184 183 185 193 195 195 193 187 183 181 183 184 180 176 176 183 191 141 56 26 358 344 328 323 326 324 324 328 330 330 326 322 322 321 321 322 323 324 325
175 177 173 171 178 187 188 191 192 191 189 185 182 185 182 186 187 185 178 179 194 216 249 349 351 344 334 327 325 324 324 328 327 322 316 315 314 314 313 313 313 313 313 313
170 167 169 175 183 191 200 200 198 196 192 193 196 193 190 185 184 185 185 193 210 234 281 318 330 331 328 324 326 326 328 327 326 325 324 322 319 318 319 319 318 318 317 316
169 169 172 180 187 191 193 199 203 204 200 193 185 191 190 185 183 182 187 216 227 254 290 314 320 322 324 325 326 327 328 328 328 327 325 324 325 325 324 323 321 320 319 319
177 182 186 191 195 196 195 198 201 203 199 193 191 188 188 191 204 212 219 231 250 281 301 311 316 321 322 326 327 328 330 328 328 329 329 329 327 326 324 323 321 320 319 319
184 189 193 196 198 199 198 191 187 184 187 186 187 192 197 200 204 210 231 252 276 292 303 312 316 318 322 326 326 326 327 329 330 330 329 328 327 325 323 321 321 321 321 317
190 199 200 200 201 199 195 191 182 181 182 185 190 193 200 205 214 213 244 283 296 305 310 314 317 320 322 322 325 327 328 329 330 330 331 329 326 324 324 323 322 320 318 316
211 208 205 208 211 206 199 194 192 189 187 186 191 198 206 214 222 242 278 295 302 307 312 314 317 318 320 323 324 326 329 330 331 331 330 329 328 328 326 324 322 319 318 317
218 208 204 200 199 197 195 196 195 194 192 198 204 205 213 226 240 261 284 295 302 304 307 315 319 319 321 322 324 328 329 330 331 331 332 332 331 329 328 325 323 321 320 320